This demonstration page uses our WeatherBlox Daily Observations layout. Learn more.

38.89511, -77.03637

Hourly Observations for April 16, 2015

Temp ( °F °C ) Dew Point ( °F °C ) Humidity (%) Winds ( mph kmh ) Pressure ( in mb ) Visibility ( mi km ) Precip ( " mm )
12:52 am 00:52 Cloudy 58 14.4 39 3.9 50 50 Calm 30.35 1028 10 16.0934 0 0
1:52 am 01:52 Cloudy 56 13.3 41 5 57 57 Calm 30.35 1028 10 16.0934 0 0
2:52 am 02:52 Cloudy 54 12.2 41 5 62 62 NNE 5 7 30.36 1028 10 16.0934 0 0
3:52 am 03:52 Cloudy 55 12.8 40 4.4 57 57 Calm 30.37 1028 10 16.0934 0 0
4:52 am 04:52 Mostly Cloudy 54 12.2 41 5 62 62 Calm 30.37 1029 10 16.0934 0 0
5:52 am 05:52 Mostly Cloudy 54 12.2 40 4.4 59 59 Calm 30.38 1029 10 16.0934 0 0
6:52 am 06:52 Mostly Cloudy 54 12.2 34 1.1 47 47 Calm 30.4 1030 10 16.0934 0 0
7:52 am 07:52 Mostly Cloudy 56 13.3 35 1.7 46 46 N 6 9 30.41 1030 10 16.0934 0 0
8:52 am 08:52 Partly Cloudy 59 15 36 2.2 42 42 NNE 7 11 30.42 1030 10 16.0934 0 0
9:52 am 09:52 Mostly Sunny 62 16.7 37 2.8 40 40 Calm 30.42 1030 10 16.0934 0 0
10:52 am 10:52 Partly Cloudy 65 18.3 37 2.8 36 36 Calm 30.43 1030 10 16.0934 0 0
11:52 am 11:52 Partly Cloudy 69 20.6 37 2.8 31 31 Calm 30.41 1030 10 16.0934 0 0
12:52 pm 12:52 Mostly Cloudy 72 22.2 36 2.2 27 27 SSE 9 15 30.38 1029 10 16.0934 0 0
1:52 pm 13:52 Mostly Cloudy 73 22.8 34 1.1 24 24 SSW 7 11 30.36 1028 10 16.0934 0 0
2:52 pm 14:52 Mostly Cloudy 71 21.7 40 4.4 32 32 S 8 13 30.34 1027 10 16.0934 0 0
3:52 pm 15:52 Mostly Cloudy 74 23.3 43 6.1 33 33 S 15 24 30.32 1027 10 16.0934 0 0
4:52 pm 16:52 Mostly Cloudy 71 21.7 47 8.3 42 42 S 10 17 30.3 1026 10 16.0934 0 0
5:52 pm 17:52 Mostly Cloudy 70 21.1 46 7.8 42 42 S 15 24 30.28 1026 10 16.0934 0 0
6:52 pm 18:52 Mostly Cloudy 68 20 46 7.8 45 45 SSE 15 24 30.27 1025 10 16.0934 0 0.0254
7:52 pm 19:52 Cloudy 67 19.4 46 7.8 47 47 SSE 13 20 30.27 1025 10 16.0934 0 0
8:52 pm 20:52 Cloudy 66 18.9 48 8.9 52 52 SSE 13 20 30.28 1025 10 16.0934 0 0.0254
9:52 pm 21:52 Cloudy 65 18.3 48 8.9 54 54 SSE 10 17 30.27 1025 10 16.0934 0 0
10:52 pm 22:52 Cloudy 63 17.2 49 9.4 60 60 S 7 11 30.26 1025 10 16.0934 0 0
11:37 pm 23:37 Cloudy with Light Rain 63 17 52 11 68 68 S 9 15 30.27 1025 10 16.0934 0.01 0.254
11:52 pm 23:52 Cloudy with Light Rain 62 16.7 51 10.6 67 67 S 8 13 30.26 1025 10 16.0934 0.01 0.254

Powered by AerisWeather